Weather History for KBNO - July, 2013

Change the Weather History Date:

Thursday, July 11, 2013

  Actual Average Record
Temperature  
Mean Temperature 69 °F 66 °F  
Max Temperature 87 °F 85 °F 106 °F (2002)
Min Temperature 51 °F 47 °F 35 °F (1997)
Degree Days  
Heating Degree Days 0 2  
Month to date heating degree days 1 30  
Since 1 June heating degree days 189 248  
Since 1 July heating degree days 1 30  
Cooling Degree Days 4 3  
Month to date cooling degree days 94 27  
Year to date cooling degree days 149 50  
Since 1 June cooling degree days 148 47  
Growing Degree Days 19 (Base 50)    
Moisture  
Dew Point 37 °F    
Average Humidity 36    
Maximum Humidity 55    
Minimum Humidity 16    
Precipitation  
Precipitation T in 0.01 in 0.11 in (1976)
Month to date precipitation T 0.15  
Year to date precipitation 3.41 6.37  
Sea Level Pressure  
Sea Level Pressure 29.87 in    
Wind  
Wind Speed 9 mph (WSW)    
Max Wind Speed 39 mph    
Max Gust Speed 51 mph    
Visibility 9 miles    
Events Rain    
T = Trace of Precipitation, MM = Missing Value Source: NWS Daily Summary

Daily Weather History Graph

Daily Weather History Graph

Search for Another Location

Airport or City:

Trip Planner

Search our weather history database for the weather conditions in past years. The results will help you decide how hot, cold, wet, or windy it might be!

Date:

Astronomy

Jul. 11, 2013 Rise Set
Actual Time 5:25 AM PDT 8:37 PM PDT
Civil Twilight 4:50 AM PDT 9:11 PM PDT
Nautical Twilight 4:05 AM PDT 9:56 PM PDT
Astronomical Twilight 3:10 AM PDT 10:51 PM PDT
Moon 8:56 AM PDT (7/11) 10:11 PM PDT (7/11)
Length of Visible Light 16h 21m
Length of Day
15h 11m
Waxing Crescent, 11% of the Moon is Illuminated
Jul 11
Waxing Crescent
Jul 15
First Quarter
Jul 22
Full
Jul 29
Last Quarter
Aug 6
New

Hourly Weather History & Observations

Time (PDT) Temp. Dew Point Humidity Pressure Visibility Wind Dir Wind Speed Gust Speed Precip Events Conditions
12:53 AM 66.9 °F 41.0 °F 39% 29.82 in 10.0 mi West 11.5 mph - N/A   Clear
1:53 AM 64.0 °F 39.9 °F 41% 29.84 in 10.0 mi West 12.7 mph - N/A   Clear
2:53 AM 60.1 °F 39.9 °F 47% 29.85 in 10.0 mi WNW 6.9 mph - N/A   Clear
3:53 AM 59.0 °F 37.9 °F 46% 29.86 in 10.0 mi West 10.4 mph - N/A   Clear
4:53 AM 55.9 °F 39.0 °F 53% 29.89 in 10.0 mi WSW 6.9 mph - N/A   Clear
5:53 AM 54.0 °F 37.9 °F 55% 29.89 in 10.0 mi WNW 5.8 mph - N/A   Clear
6:53 AM 62.1 °F 39.0 °F 43% 29.89 in 10.0 mi NE 6.9 mph - N/A   Clear
7:53 AM 68.0 °F 41.0 °F 37% 29.88 in 10.0 mi Calm Calm - N/A   Clear
8:53 AM 75.0 °F 37.9 °F 26% 29.87 in 10.0 mi West 11.5 mph - N/A   Clear
9:53 AM 78.1 °F 36.0 °F 22% 29.88 in 10.0 mi West 9.2 mph - N/A   Clear
10:36 AM 80.6 °F 39.2 °F 23% 30.00 in 1.2 mi WSW 6.9 mph - N/A   Haze
10:44 AM 80.6 °F 39.2 °F 23% 30.00 in 10.0 mi Calm Calm - N/A   Clear
10:53 AM - - N/A% 30.00 in 1.2 mi Variable 6.9 mph - N/A   Clear
11:03 AM - - N/A% 30.00 in 0.8 mi South 9.2 mph - N/A   Clear
11:07 AM - - N/A% 30.00 in 2.5 mi South 12.7 mph 17.3 mph N/A   Clear
11:14 AM - - N/A% 30.00 in 10.0 mi South 12.7 mph 18.4 mph N/A   Clear
11:53 AM 87.1 °F 36.0 °F 16% 29.85 in 10.0 mi South 10.4 mph - N/A   Clear
12:53 PM 82.9 °F 37.9 °F 20% 29.85 in 10.0 mi SSE 8.1 mph - N/A   Clear
1:53 PM 84.0 °F 36.0 °F 18% 29.83 in 10.0 mi Calm Calm - N/A   Clear
2:53 PM 87.1 °F 36.0 °F 16% 29.81 in 10.0 mi SSW 10.4 mph - N/A   Partly Cloudy
3:53 PM 81.0 °F 30.9 °F 16% 29.81 in 10.0 mi SW 18.4 mph 29.9 mph N/A   Partly Cloudy
4:53 PM 84.0 °F 34.0 °F 17% 29.80 in 10.0 mi SW 18.4 mph 29.9 mph N/A   Clear
5:53 PM 81.0 °F 30.9 °F 16% 29.81 in 10.0 mi Variable 3.5 mph 18.4 mph 0.00 in Rain Light Rain
6:53 PM 82.9 °F 30.9 °F 15% 29.77 in 10.0 mi West 10.4 mph - 0.00 in   Clear
7:53 PM 73.9 °F 39.9 °F 29% 29.77 in 10.0 mi West 6.9 mph - N/A   Clear
8:53 PM 66.0 °F 34.0 °F 30% 29.78 in 10.0 mi NW 6.9 mph - N/A   Clear
9:53 PM 71.1 °F 34.0 °F 26% 29.80 in 10.0 mi NW 12.7 mph - N/A   Clear
10:53 PM 64.0 °F 36.0 °F 35% 29.94 in 10.0 mi West 6.9 mph - N/A   Clear
11:53 PM 62.1 °F 32.0 °F 32% 29.83 in 10.0 mi WSW 8.1 mph - N/A   Clear